This is the latest recevied weather packets stored in our database for station/object DL2ARH-7. If no packets are shown the sender has not sent any weather packets the latest 1 day(s).
| Time | Temp. | Humidity | Pressure | Rain* | Wind** | Luminosity | Snow |
|---|---|---|---|---|---|---|---|
| 1778061432 | 20.56° C | 33% | 1005.5 hPa | 0 mm | - | - | - |
| 1778060834 | 20° C | 37% | 1005.6 hPa | 0 mm | - | - | - |
| 1778060767 | 20° C | 37% | 1005.5 hPa | 0 mm | - | - | - |
| 1778060700 | 20° C | 37% | 1005.5 hPa | 0 mm | - | - | - |
| 1778060501 | 19.44° C | 36% | 1005.5 hPa | 0 mm | - | - | - |
| 1778060368 | 19.44° C | 36% | 1005.4 hPa | 0 mm | - | - | - |
| 1778059968 | 20° C | 38% | 1005.4 hPa | 0 mm | - | - | - |
| 1778059905 | 20.56° C | 40% | 1005.4 hPa | 0 mm | - | - | - |
| 1778059702 | 20.56° C | 40% | 1005.3 hPa | 0 mm | - | - | - |
| 1778059636 | 20.56° C | 40% | 1005.2 hPa | 0 mm | - | - | - |
| 1778059570 | 20.56° C | 40% | 1005.1 hPa | 0 mm | - | - | - |
| 1778059437 | 20.56° C | 41% | 1005.4 hPa | 0 mm | - | - | - |
| 1778059371 | 20.56° C | 41% | 1005.3 hPa | 0 mm | - | - | - |
| 1778059237 | 21.11° C | 41% | 1005.1 hPa | 0 mm | - | - | - |
| 1778059038 | 20.56° C | 41% | 1005.3 hPa | 0 mm | - | - | - |
| 1778058705 | 20.56° C | 44% | 1005.2 hPa | 0 mm | - | - | - |
| 1778058307 | 20° C | 45% | 1005.1 hPa | 0 mm | - | - | - |
| 1778058173 | 20° C | 45% | 1005 hPa | 0 mm | - | - | - |
| 1778058108 | 20° C | 44% | 1005.1 hPa | 0 mm | - | - | - |
| 1778057842 | 20.56° C | 45% | 1005.1 hPa | 0 mm | - | - | - |
| 1778057774 | 20.56° C | 45% | 1005.1 hPa | 0 mm | - | - | - |
| 1778057508 | 19.44° C | 44% | 1005.1 hPa | 0 mm | - | - | - |
| 1778057442 | 19.44° C | 43% | 1005.1 hPa | 0 mm | - | - | - |
| 1778057176 | 19.44° C | 42% | 1004.9 hPa | 0 mm | - | - | - |
| 1778057109 | 20° C | 42% | 1005.1 hPa | 0 mm | - | - | - |
* Rain latest hour (hover to see other rain measurements)
** Current wind speed in m/s (hover to see current wind gust speed)